Location: Bouchavesnes-Bergen
(49.9859°N, 2.9203°E)
Time: 11:10:23
(UTC+00:00)

USA 234 - Pass Details

Date: 09 March 2021
Orbit: 1102 x 1105 km, 123.0° (Epoch: 13 April)

Event Time Altitude Azimuth Distance (km) Brightness Sun altitude
Rises 02:17:58 0° 117° (ESE) 3,914 6.3 -35.9°
Reaches altitude 10° 02:20:26 10° 117° (ESE) 2,958 5.7 -35.6°
Enters shadow 02:24:14 39° 116° (ESE) 1,608 4.1 -35.2°
